Dr. Bill's Marine Weather

Coastal Marine Forecast

       Alabama   Florida   Louisiana   Mississippi

Printer Friendly AL  FL  LA  MS

Data Buoys:   Western Gulf of Mexico    Eastern Gulf of Mexico
**********************************************************************
  Alabama
700 AM CDT SUN SEP 25 2016

ALZ051>064-251300-
SOUTHWEST ALABAMA
  
CITY           SKY/WX    TMP DP  RH WIND       PRES   REMARKS
MOBILE         PTCLDY    73  70  90 NW5       30.05R                  
6HR MIN TEMP:  71; 6HR MAX TEMP:  74;                                

BROOKLEY FIELD CLEAR     74  73  97 CALM      30.05R                  
6HR MIN TEMP:  74; 6HR MAX TEMP:  77;                                

EVERGREEN      CLEAR     68  67  96 CALM      30.05R FOG              
6HR MIN TEMP:  68; 6HR MAX TEMP:  70;                                

**********************************************************************
  Florida
800 AM EDT SUN SEP 25 2016

FLZ001>010-012>015-112-114-115-251300-
PANHANDLE FLORIDA
  
CITY           SKY/WX    TMP DP  RH WIND       PRES   REMARKS
PENSACOLA      CLEAR     77  71  82 CALM      30.03R                  
PENSACOLA NAS  CLEAR     75  72  90 NW3       30.02R                  
MILTON NAS     CLEAR     70  70 100 CALM      30.04                   
CRESTVIEW      CLEAR     67  65  93 CALM      30.05R                  
DUKE FIELD     FAIR      68  66  93 W1        30.03R                  
VALPARAISO     PTCLDY    71  67  85 N2        30.02R                  
MARY ESTHER    CLEAR     71  67  89 NE6       30.01R                  
TRI COUNTY     FAIR      71  69  93 CALM      30.05R                  
PANAMA CITY    CLEAR     72  70  94 NW6       30.03R                  
TYNDALL AFB    CLEAR     75  74  98 E3        30.03R                  
APALACHICOLA   CLEAR     75  75 100 E3        30.03R                  

STATION/POSITION SKY/WX   TEMP    WIND        PRES    WAVE   SWELL
                          AIR SEA DIR/SP/G            HT/PER HT/PER
                          (F)     (DEG/KT/KT) (MB)    (FT/S) (FT/S)
30.1N   87.6W              83 85  350/  8/ 10 1016.8R   1
29.2N   88.2W              83 85  310/  4/  6 1016.5R
28.8N   86.0W              83 85              1017.2R   1
PANAMA CITY BEAC           76 86   40/  4/  5 1016.6R
TOWER C                    83      CALM  /  1 1017.8R
28.5N   84.5W              84 85  360/  2/  4 1016.9R   0

**********************************************************************
  Louisiana
700 AM CDT SUN SEP 25 2016

LAZ040-048-061>063-065-066-069-251300-
SOUTHEAST LOUISIANA
  
CITY           SKY/WX    TMP DP  RH WIND       PRES   REMARKS
N.O. AUDUBON     N/A     76  76 100 MISG        N/A                   
6HR MIN TEMP:  75; 6HR MAX TEMP:  82;                                

N.O. INTL ARPT PTCLDY    77  73  87 CALM      30.04R                  
6HR MIN TEMP:  76; 6HR MAX TEMP:  79;                                

N.O. LAKEFRONT CLEAR     82  73  74 CALM      30.04R                  
6HR MIN TEMP:  80; 6HR MAX TEMP:  82;                                

N.O. DOWNTOWN*   N/A     80  73  79 CALM      30.05R                  
6HR MIN TEMP:  79; 6HR MAX TEMP:  84;                                

RESERVE*         N/A     73  71  93 CALM      30.04R FOG              
6HR MIN TEMP:  73; 6HR MAX TEMP:  76;                                

SLIDELL        CLEAR     71  69  93 CALM      30.04R                  
6HR MIN TEMP:  71; 6HR MAX TEMP:  74;                                

BATON ROUGE    CLEAR     71  69  93 NE3       30.04R                  
6HR MIN TEMP:  70; 6HR MAX TEMP:  73;                                

BOOTHVILLE     CLEAR     79  74  84 CALM      30.04R                  
6HR MIN TEMP:  78; 6HR MAX TEMP:  80;                                

BELLE CHASSE   CLEAR     72  71  97 CALM      30.04R                  
6HR MIN TEMP:  72; 6HR MAX TEMP:  74; 6HR PCP: TRACE;                

BOGALUSA*      FAIR      70  67  90 CALM      30.06S FOG              
6HR MIN TEMP:  70; 6HR MAX TEMP:  74;                                

GALLIANO*      SUNNY    N/A N/A N/A CALM      30.04R HAZE             
NEW ROADS*       N/A     70  70 100 MISG      30.04R FOG              
6HR MIN TEMP:  67; 6HR MAX TEMP:  72;                                

GONZALES*        N/A     71  71 100 CALM      30.03S FOG              
6HR MIN TEMP:  70; 6HR MAX TEMP:  73;                                

HAMMOND*       CLEAR     70  66  88 CALM      30.05R                  
HOUMA*         PTCLDY    72  72 100 CALM      30.04R                  
PORT FOURCHON* SUNNY     82  73  74 CALM      30.03R                  

**********************************************************************
  Mississippi
700 AM CDT SUN SEP 25 2016

MSZ080>082-251300-
COASTAL MISSISSIPPI
  
CITY           SKY/WX    TMP DP  RH WIND       PRES   REMARKS
BAY ST LOUIS   CLEAR     72  66  83 CALM      30.05  FOG              
BILOXI         PTCLDY    76  75  97 CALM      30.03S                  
6HR MIN TEMP:  76; 6HR MAX TEMP:  79;                                

PASCAGOULA     CLEAR     70  70 100 CALM      30.05R FOG              
6HR MIN TEMP:  70; 6HR MAX TEMP:  72;                                

GULFPORT       PTCLDY    74  73  97 CALM      30.04R                  
6HR MIN TEMP:  74; 6HR MAX TEMP:  77;                                

About Us | Coastal Marine Forecast | Offshore Marine Forecast
Gulf Coast Tides | Hourly Weather Observations | Weather Radar
Sea Surface Temperatures | Solar/Lunar Data | Hurricane Advisories | Home
     
USA Logo Dr. Bill's Marine Weather
Last date changed: December 9, 2014 4:08 PM
www.gulfmarineweather.com/hourlyweatherobservations.shtml
Contact Us